Ovda Intl Airport, Israel

6:23 AM IDT on April 25, 2018 (GMT +0300)
Ovda Air Base

Weather History for LLOV - January, 2013

Change the Weather History Date:

Tuesday, January 1, 2013

  Actual Average Record
Temperature  
Mean Temperature 53 °F -  
Max Temperature 62 °F 59 °F 77 °F (2005)
Min Temperature 44 °F 41 °F 37 °F (2001)
Degree Days  
Heating Degree Days 12    
Growing Degree Days 3 (Base 50)    
Moisture  
Dew Point 41 °F    
Average Humidity 67    
Maximum Humidity 100    
Minimum Humidity 42    
Precipitation  
Precipitation 0.00 in - - ()
Sea Level Pressure  
Sea Level Pressure 30.08 in    
Wind  
Wind Speed 5 mph ()    
Max Wind Speed 9 mph    
Max Gust Speed -    
Visibility 3.5 miles    
Events      
Averages and records for this station are not official NWS values.
T = Trace of Precipitation, MM = Missing Value Source: Averaged Metar Reports

Daily Weather History Graph

Daily Weather History Graph

Search for Another Location

Airport or City:

Astronomy

Jan. 01, 2013 Rise Set
Actual Time 6:36 AM IST 4:51 PM IST
Civil Twilight 6:09 AM IST 5:18 PM IST
Nautical Twilight 5:40 AM IST 5:47 PM IST
Astronomical Twilight 5:10 AM IST 6:16 PM IST
Moon 8:42 PM IST (1/1) 8:54 AM IST (1/1)
Length of Visible Light 11h 08m
Length of Day
10h 15m
Waning Gibbous, 85% of the Moon is Illuminated
Jan 1
Waning Gibbous
Jan 5
Last Quarter
Jan 11
New
Jan 19
First Quarter
Jan 27
Full

Hourly Weather History & Observations

Time (IST) Temp. Windchill Dew Point Humidity Pressure Visibility Wind Dir Wind Speed Gust Speed Precip Events Conditions
12:50 AM 44.6 °F 40.7 °F 35.6 °F 71% 30.06 in - SW 6.9 mph - N/A   Clear
1:50 AM 44.6 °F 40.7 °F 35.6 °F 71% 30.06 in - SW 6.9 mph - N/A   Clear
2:50 AM 46.4 °F 42.9 °F 37.4 °F 71% 30.06 in - WSW 6.9 mph - N/A   Clear
3:50 AM 44.6 °F 42.2 °F 39.2 °F 81% 30.06 in - SSW 4.6 mph - N/A   Clear
4:50 AM 44.6 °F 39.7 °F 42.8 °F 93% 30.06 in 3.7 mi SW 9.2 mph - N/A   Partly Cloudy
5:10 AM 44.6 °F 40.2 °F 44.6 °F 100% 30.06 in 3.1 mi SW 8.1 mph - N/A   Scattered Clouds
5:50 AM 44.6 °F 39.7 °F 44.6 °F 100% 30.06 in 3.1 mi SW 9.2 mph - N/A   Partly Cloudy
6:50 AM 44.6 °F 40.7 °F 44.6 °F 100% 30.06 in 3.1 mi SW 6.9 mph - N/A   Mist
7:50 AM 46.4 °F 45.2 °F 46.4 °F 100% 30.06 in 3.1 mi SSW 3.5 mph - N/A   Mist
8:50 AM 53.6 °F - 50.0 °F 88% 30.09 in 3.1 mi WNW 6.9 mph - N/A   Mist
8:56 AM 55.4 °F - 48.2 °F 77% 30.09 in 3.7 mi WNW 8.1 mph - N/A   Unknown
9:50 AM 57.2 °F - 46.4 °F 67% 30.09 in 5.0 mi WNW 6.9 mph - N/A   Unknown
10:50 AM 60.8 °F - 42.8 °F 52% 30.09 in - NNW 6.9 mph - N/A   Clear
11:50 AM 60.8 °F - 41.0 °F 48% 30.06 in - North 4.6 mph - N/A   Clear
12:50 PM 60.8 °F - 39.2 °F 45% 30.06 in - NE 4.6 mph - N/A   Clear
1:50 PM 60.8 °F - 39.2 °F 45% 30.04 in - East 5.8 mph - N/A   Clear
2:50 PM 62.6 °F - 39.2 °F 42% 30.04 in - NE 5.8 mph - N/A   Clear
3:50 PM 62.6 °F - 39.2 °F 42% 30.06 in - ENE 5.8 mph - N/A   Clear
4:50 PM 60.8 °F - 39.2 °F 45% 30.06 in - ENE 5.8 mph - N/A   Clear
5:50 PM 57.2 °F - 39.2 °F 51% 30.09 in - NNE 6.9 mph - N/A   Clear
6:50 PM 55.4 °F - 39.2 °F 54% 30.09 in - North 4.6 mph - N/A   Clear
7:50 PM 55.4 °F - 39.2 °F 54% 30.12 in - NW 3.5 mph - N/A   Clear
8:50 PM 51.8 °F - 37.4 °F 58% 30.12 in - Calm Calm - N/A   Clear
9:50 PM 53.6 °F - 41.0 °F 62% 30.12 in - NE 2.3 mph - N/A   Clear
10:50 PM 50.0 °F - 39.2 °F 66% 30.12 in - SSE 2.3 mph - N/A   Clear
11:50 PM 50.0 °F - 39.2 °F 66% 30.12 in - West 3.5 mph - N/A   Clear